Weather History for Ithaca, NY

Change the Weather History Date:

Friday, March 1, 2013

  Actual Average Record
Temperature  
Mean Temperature 28 °F -  
Max Temperature 31 °F 36 °F 63 °F (1976)
Min Temperature 24 °F 18 °F -1 °F (1973)
Degree Days  
Heating Degree Days 38    
Moisture  
Dew Point 26 °F    
Average Humidity 89    
Maximum Humidity 100    
Minimum Humidity 82    
Precipitation  
Precipitation 0.00 in - - ()
Sea Level Pressure  
Sea Level Pressure 29.81 in    
Wind  
Wind Speed 10 mph (NW)    
Max Wind Speed 17 mph    
Max Gust Speed -    
Visibility 6 miles    
Events Snow    
Averages and records for this station are not official NWS values.
T = Trace of Precipitation, MM = Missing Value Source: NWS Daily Summary

Daily Weather History Graph

Daily Weather History Graph

Search for Another Location

Airport:

Trip Planner

Search our weather history database for the weather conditions in past years. The results will help you decide how hot, cold, wet, or windy it might be!

Date:

Astronomy

Mar. 01, 2013 Rise Set
Actual Time 6:40 AM EST 5:55 PM EST
Civil Twilight 6:12 AM EST 6:24 PM EST
Nautical Twilight 5:40 AM EST 6:56 PM EST
Astronomical Twilight 5:07 AM EST 7:29 PM EST
Moon 10:33 PM EST (3/1) 8:20 AM EST (3/1)
Length of Visible Light 12h 11m
Length of Day
11h 14m
Waning Gibbous, 83% of the Moon is Illuminated
Mar 1
Waning Gibbous
Mar 4
Last Quarter
Mar 11
New
Mar 19
First Quarter
Mar 27
Full

Hourly Weather History & Observations

Time (EST) Temp. Windchill Dew Point Humidity Pressure Visibility Wind Dir Wind Speed Gust Speed Precip Events Conditions
12:23 AM 30.2 °F 21.3 °F 30.2 °F 100% 29.66 in 10.0 mi NNW 10.4 mph - 0.00 in   Overcast
12:47 AM 30.2 °F 23.4 °F 28.4 °F 93% 29.67 in 10.0 mi NNW 6.9 mph - 0.00 in Snow Light Snow
12:56 AM 31.1 °F 23.1 °F 29.1 °F 92% 29.71 in 9.0 mi NNW 9.2 mph - 0.00 in Snow Light Snow
2:56 AM 31.1 °F 24.5 °F 29.1 °F 92% 29.71 in 7.0 mi NW 6.9 mph - 0.00 in Snow Light Snow
3:56 AM 31.1 °F 24.5 °F 29.1 °F 92% 29.72 in 10.0 mi NW 6.9 mph - 0.00 in Snow Light Snow
4:56 AM 31.1 °F 22.4 °F 29.1 °F 92% 29.74 in 8.0 mi NNW 10.4 mph - 0.00 in Snow Light Snow
5:18 AM 30.2 °F 22.6 °F 28.4 °F 93% 29.71 in 6.0 mi NNW 8.1 mph - 0.00 in Snow Light Snow
5:56 AM 30.0 °F 19.5 °F 29.1 °F 96% 29.75 in 4.0 mi NNW 13.8 mph - 0.00 in Snow Light Snow
7:56 AM 30.0 °F 21.1 °F 28.0 °F 92% 29.79 in 1.5 mi NW 10.4 mph - 0.00 in Snow Light Snow
8:19 AM 30.2 °F 20.8 °F 28.4 °F 93% 29.76 in 1.5 mi NNW 11.5 mph - 0.00 in Snow Light Snow
8:56 AM 30.0 °F 19.5 °F 28.0 °F 92% 29.80 in 3.0 mi NNW 13.8 mph - 0.00 in Snow Light Snow
10:56 AM 30.0 °F 19.5 °F 28.0 °F 92% 29.81 in 1.5 mi NW 13.8 mph - 0.00 in Snow Light Snow
11:56 AM 30.0 °F 20.0 °F 27.1 °F 89% 29.83 in 3.0 mi NW 12.7 mph - 0.00 in Snow Light Snow
12:56 PM 30.0 °F 18.3 °F 26.1 °F 85% 29.83 in 6.0 mi NW 17.3 mph - 0.00 in Snow Light Snow
1:56 PM 30.0 °F 19.5 °F 25.2 °F 82% 29.83 in 10.0 mi NNW 13.8 mph - 0.00 in Snow Light Snow
2:56 PM 28.0 °F 16.5 °F 25.2 °F 89% 29.84 in 10.0 mi NNW 15.0 mph - 0.00 in Snow Light Snow
3:56 PM 28.0 °F 18.1 °F 25.2 °F 89% 29.85 in 8.0 mi NNW 11.5 mph - 0.00 in Snow Light Snow
4:56 PM 27.1 °F 14.9 °F 23.0 °F 84% 29.86 in 7.0 mi NNW 16.1 mph - 0.00 in Snow Light Snow
5:56 PM 26.1 °F 15.0 °F 23.0 °F 88% 29.88 in 3.0 mi NW 12.7 mph - 0.00 in Snow Light Snow
6:56 PM 25.2 °F 15.1 °F 21.0 °F 84% 29.91 in 4.0 mi NW 10.4 mph - 0.00 in Snow Light Snow
7:56 PM 25.2 °F 15.1 °F 21.0 °F 84% 29.91 in 10.0 mi WNW 10.4 mph - 0.00 in   Overcast
8:56 PM 25.2 °F 18.3 °F 21.0 °F 84% 29.91 in 10.0 mi NNW 5.8 mph - 0.00 in   Overcast
9:56 PM 25.2 °F 15.7 °F 21.0 °F 84% 29.91 in 7.0 mi NW 9.2 mph - 0.00 in Snow Light Snow
10:56 PM 24.1 °F 15.2 °F 21.0 °F 88% 29.90 in 5.0 mi NW 8.1 mph - 0.00 in Snow Light Snow
11:39 PM 24.8 °F 16.1 °F 21.2 °F 86% 29.85 in 5.0 mi NW 8.1 mph - 0.00 in Snow Light Snow
11:56 PM 24.1 °F 15.2 °F 22.1 °F 92% 29.90 in 8.0 mi NW 8.1 mph - 0.00 in Snow Light Snow